sat.trackr.live / text

‹ back to catalog

STARLINK-1123

NORAD 44930 · 2020-001S

PAYLOAD ACTIVE UNKNOWN

§ Identity

Operator
Country
US
Launch date
2020-01-07
Launch site
AFETR
Launch vehicle
Mass (kg)
RCS (m²)

Purposes: comms

External: N2YO · Heavens-Above · Gunter

§ Orbital elements

Epoch: 2026-09-20T04:08:08.741760Z

Period
91.60 min
Inclination
53.1360°
Eccentricity
0.0001284
Mean motion
15.71977981 rev/d
Perigee alt
352.4 km
Apogee alt
354.1 km
Semi-major
6,731.4 km
B*
3.5035e-4
RAAN
127.2953°
Arg perigee
195.4613°
Mean anomaly
164.6367°
Rev number
37,012

§ Raw data

STARLINK-11231 44930U 20001S   26263.17232340  .00046330  00000+0  35035-3 0  99982 44930  53.1360 127.2953 0001284 195.4613 164.6367 15.71977981370124

JSON: /api/v1/satellites/44930 · /tle

For live sub-satellite position, see the globe view (requires WebGL).

§ Visibility from observer

Set your observer location to see the next 7 days of passes ≥ 10°. The values pass through the URL so the page stays shareable.

No JS? Fill the form by hand. The geolocation button needs JavaScript.